Regional Weather Roundup
Issued by NWS

Home | Current Version | Previous Version | Graphics & Text | Print | Product List | Glossary On
Versions: 1 2 3 4 5 6 7 8 9 10 11 12 13 14 15 16 17 18 19 20 21 22 23 24 25 26 27 28 29 30 31 32 33 34 35 36 37 38 39 40 41 42 43 44 45 46 47 48 49 50
000
ASUS43 KTOP 050008
RWRKS

WEATHER ROUNDUP FOR KANSAS
NATIONAL WEATHER SERVICE GOODLAND KS
600 PM CST WED MAR 04 2015

NOTE:  "FAIR" INDICATES FEW OR NO CLOUDS BELOW 12,000 FEET WITH NO
SIGNIFICANT WEATHER AND/OR OBSTRUCTIONS TO VISIBILITY.

KSZ001>006-013>018-027>032-041>047-050100-
NORTHWEST KANSAS

CITY           SKY/WX    TMP DP  RH WIND       PRES   REMARKS
GOODLAND       CLEAR     27   3  35 NW12      30.21R WCI  17
6HR MIN TEMP:  22; 6HR MAX TEMP:  29;

HAYS           PTCLDY    30   1  29 N12       30.29S WCI  21
HILL CITY      CLEAR     31   2  29 N15       30.28R WCI  20
6HR MIN TEMP:  28; 6HR MAX TEMP:  33;

RUSSELL        PTCLDY    31   3  30 N14       30.28R WCI  21
6HR MIN TEMP:  28; 6HR MAX TEMP:  33;

$$

KSZ061>065-074>080-084>089-050100-
SOUTHWEST KANSAS

CITY           SKY/WX    TMP DP  RH WIND       PRES   REMARKS
DODGE CITY     CLOUDY    29   3  33 N14       30.24F WCI  18
6HR MIN TEMP:  23; 6HR MAX TEMP:  32;

ELKHART          N/A     25   9  51 N12         N/A  WCI  14
GARDEN CITY    MOCLDY    28   4  35 N13       30.24R WCI  17
6HR MIN TEMP:  22; 6HR MAX TEMP:  30;

GREAT BEND     CLOUDY    30   1  29 N15G21    30.29F WCI  19
LIBERAL        CLOUDY    27  14  59 N14       30.26R WCI  15
PRATT          CLOUDY    28   9  43 N10       30.27F WCI  19
$$

KSZ066>073-081>083-090>101-050100-
SOUTHEAST KANSAS

CITY           SKY/WX    TMP DP  RH WIND       PRES   REMARKS
CHANUTE        CLOUDY    27   9  46 N8        30.34R
6HR MIN TEMP:  23; 6HR MAX TEMP:  29; 6HR PCP: TRACE;

COFFEYVILLE    CLOUDY    27  10  49 N16       30.33R WCI  15
6HR MIN TEMP:  23; 6HR MAX TEMP:  28; 6HR PCP: TRACE;

HUTCHINSON     CLOUDY    31   6  35 N9        30.27S
6HR MIN TEMP:  26; 6HR MAX TEMP:  33;

MEDICINE LODGE   N/A     30   8  39 NE10      30.29S WCI  21
NEWTON         CLOUDY    27   9  46 N13       30.29F WCI  16
PARSONS        CLOUDY    27   8  44 N13G21    30.35R WCI  16
6HR MIN TEMP:  24; 6HR MAX TEMP:  29; 6HR PCP: TRACE;

WICHITA INTL   CLOUDY    30   6  36 NE17      30.27F WCI  18
6HR MIN TEMP:  24; 6HR MAX TEMP:  30;

WICHITA JABRA  CLOUDY    28   9  44 N12       30.29R WCI  18
6HR MIN TEMP:  24; 6HR MAX TEMP:  29;

WICHITA MCCONL CLOUDY    29   8  42 NE13      30.26F WCI  18
WINFIELD       CLOUDY    28  10  46 NE14      30.32S WCI  17
6HR MIN TEMP:  22; 6HR MAX TEMP:  29; 6HR PCP: TRACE;

$$

KSZ007>012-019>026-033>040-048>060-102>105-050100-
NORTHEAST KANSAS

CITY           SKY/WX    TMP DP  RH WIND       PRES   REMARKS
CONCORDIA      PTCLDY    29   5  36 N10       30.32R WCI  20
6HR MIN TEMP:  28; 6HR MAX TEMP:  33;

EMPORIA        CLOUDY    28   7  41 N7        30.31R
6HR MIN TEMP:  24; 6HR MAX TEMP:  29;

LAWRENCE       CLOUDY    29   5  36 N10       30.33R WCI  20
6HR MIN TEMP:  25; 6HR MAX TEMP:  31;

MANHATTAN      MOCLDY    30   5  34 N7        30.35R
6HR MIN TEMP:  29; 6HR MAX TEMP:  33;

MARYSVILLE     MOCLDY    28   5  37 N10       30.32R WCI  19
OLATHE IND     CLOUDY    26   8  46 N5        30.32R
6HR MIN TEMP:  23; 6HR MAX TEMP:  27;

OLATHE EXE     CLOUDY    27   4  37 N6        30.30R
6HR MIN TEMP:  23; 6HR MAX TEMP:  27;

SALINA         CLOUDY    32   2  27 N13       30.32R WCI  22
6HR MIN TEMP:  31; 6HR MAX TEMP:  36;

TOPEKA BILLARD CLOUDY    30   6  36 N8        30.33R
6HR MIN TEMP:  27; 6HR MAX TEMP:  32;

TOPEKA FORBES  CLOUDY    31   4  31 N10       30.32R WCI  22
6HR MIN TEMP:  26; 6HR MAX TEMP:  32;

$$


USA.gov is the U.S. government's official web portal to all federal, state and local government web resources and services.